CW7563 Weather Reports


Display with metric or nautical units.
time (UTC)temp
F
wind
direction
speed
MPH
gust
MPH
rain 1hr
in
rain 24hr
in
rain mn
in
humidity
%
barometer
mb
20260510150805 55 239 1.0 2.0 0.00 0.00 0.00 82 1017.6
20260510150306 54 244 1.0 3.0 0.00 0.00 0.00 82 1017.6
20260510145806 55 245 1.0 3.0 0.00 0.00 0.00 82 1017.6
20260510145306 55 297 2.0 5.0 0.00 0.00 0.00 81 1017.9
20260510144806 55 242 2.0 3.0 0.00 0.00 0.00 81 1017.7
20260510144305 55 240 1.0 3.0 0.00 0.00 0.00 81 1017.4
20260510143307 55 323 1.0 6.0 0.00 0.00 0.00 82 1017.5
20260510142806 54 266 1.0 3.0 0.00 0.00 0.00 82 1017.5
20260510141806 54 293 1.0 3.0 0.00 0.00 0.00 83 1017.1
20260510141305 54 297 1.0 2.0 0.00 0.00 0.00 83 1017.1
20260510140806 54 297 0.0 0.0 0.00 0.00 0.00 83 1017.0
20260510135806 54 299 1.0 3.0 0.00 0.00 0.00 84 1016.9
20260510135306 54 233 0.0 3.0 0.00 0.00 0.00 85 1017.0
20260510134306 53 292 0.0 1.0 0.00 0.00 0.00 87 1016.9
20260510133805 53 292 1.0 2.0 0.00 0.00 0.00 87 1016.9
20260510133306 53 292 0.0 2.0 0.00 0.00 0.00 88 1016.8
20260510132806 53 292 2.0 3.0 0.00 0.00 0.00 88 1017.0
20260510132306 52 293 1.0 1.0 0.00 0.00 0.00 87 1016.8
20260510131806 53 293 1.0 2.0 0.00 0.00 0.00 87 1016.8
20260510131305 53 293 1.0 1.0 0.00 0.00 0.00 87 1016.7
20260510130306 53 293 0.0 1.0 0.00 0.00 0.00 87 1016.7
20260510125805 53 293 0.0 2.0 0.00 0.00 0.00 87 1016.7
20260510125307 53 294 1.0 2.0 0.00 0.00 0.00 87 1016.6
20260510124806 53 292 0.0 1.0 0.00 0.00 0.00 86 1017.0
20260510124306 53 292 0.0 1.0 0.00 0.00 0.00 86 1017.0
20260510123806 53 292 1.0 2.0 0.00 0.00 0.00 86 1017.0
20260510123305 53 293 1.0 2.0 0.00 0.00 0.00 85 1017.0
20260510122805 53 293 1.0 2.0 0.00 0.00 0.00 85 1016.8
20260510122306 53 293 1.0 2.0 0.00 0.00 0.00 85 1016.8
20260510121806 54 294 1.0 2.0 0.00 0.00 0.00 84 1016.8
20260510121306 54 223 0.0 1.0 0.00 0.00 0.00 84 1016.8
20260510120806 54 223 0.0 1.0 0.00 0.00 0.00 84 1016.8
20260510120306 54 224 1.0 2.0 0.00 0.00 0.00 84 1016.7
20260510115805 54 224 1.0 3.0 0.00 0.00 0.00 84 1016.7
20260510115307 54 222 1.0 3.0 0.00 0.00 0.00 84 1016.8
20260510114805 54 219 2.0 3.0 0.00 0.00 0.00 84 1016.7
20260510114306 54 245 1.0 3.0 0.00 0.00 0.00 84 1016.5
20260510113805 54 253 2.0 3.0 0.00 0.00 0.00 84 1016.6
20260510113305 55 220 0.0 2.0 0.00 0.00 0.00 84 1016.5
20260510112805 55 220 0.0 3.0 0.00 0.00 0.00 84 1016.4
20260510111805 55 252 2.0 5.0 0.00 0.00 0.00 83 1016.7
20260510111306 55 226 2.0 5.0 0.00 0.00 0.00 83 1016.6
20260510110805 55 245 2.0 3.0 0.00 0.00 0.00 83 1016.5
20260510110306 55 229 2.0 3.0 0.00 0.00 0.00 83 1016.3
20260510105306 56 263 0.0 2.0 0.00 0.00 0.00 82 1016.3
20260510104806 56 263 2.0 3.0 0.00 0.00 0.00 81 1016.3
20260510104306 56 265 2.0 5.0 0.00 0.00 0.00 81 1016.2
20260510103806 56 249 1.0 3.0 0.00 0.00 0.00 82 1016.1
20260510103306 56 272 2.0 3.0 0.00 0.00 0.00 81 1016.1
20260510102805 57 251 1.0 3.0 0.00 0.00 0.00 81 1015.9
20260510102306 57 295 1.0 3.0 0.00 0.00 0.00 81 1015.8
20260510101805 56 289 1.0 3.0 0.00 0.00 0.00 81 1015.8
20260510101305 56 257 1.0 3.0 0.00 0.00 0.00 81 1015.6
20260510100306 57 248 1.0 2.0 0.00 0.00 0.00 81 1015.4
20260510095805 57 247 0.0 2.0 0.00 0.00 0.00 81 1015.3
20260510095306 57 247 1.0 2.0 0.00 0.00 0.00 81 1015.1
20260510094805 57 247 1.0 2.0 0.00 0.00 0.00 80 1014.9
20260510094305 57 247 0.0 1.0 0.00 0.00 0.00 80 1015.0
20260510093806 57 247 0.0 1.0 0.00 0.00 0.00 80 1015.0
20260510093306 57 247 0.0 2.0 0.00 0.00 0.00 80 1015.2
20260510092806 57 247 1.0 2.0 0.00 0.00 0.00 79 1015.3
20260510092307 58 248 1.0 3.0 0.00 0.00 0.00 79 1015.2
20260510091805 58 230 0.0 2.0 0.00 0.00 0.00 78 1015.3
20260510091305 58 249 1.0 3.0 0.00 0.00 0.00 78 1015.2
20260510090305 58 231 2.0 3.0 0.00 0.00 0.00 77 1015.2
20260510085805 57 209 1.0 3.0 0.00 0.00 0.00 78 1015.1
20260510085306 57 198 1.0 3.0 0.00 0.00 0.00 79 1015.1
20260510084305 57 155 0.0 0.0 0.00 0.00 0.00 78 1015.0
20260510083805 57 155 0.0 0.0 0.00 0.00 0.00 77 1014.9
20260510083305 57 155 0.0 0.0 0.00 0.00 0.00 78 1014.9
20260510082805 57 155 0.0 1.0 0.00 0.00 0.00 78 1014.9
20260510081805 57 155 0.0 0.0 0.00 0.00 0.00 77 1014.9
20260510080305 58 155 1.0 3.0 0.00 0.00 0.00 75 1014.8
20260510075805 59 155 2.0 3.0 0.00 0.00 0.00 75 1014.8
20260510074805 59 155 2.0 3.0 0.00 0.00 0.00 74 1014.9
20260510074305 59 155 2.0 3.0 0.00 0.00 0.00 74 1014.8
20260510073804 59 155 2.0 3.0 0.00 0.00 0.00 73 1014.7
20260510073307 60 155 2.0 3.0 0.00 0.00 0.00 73 1014.8
20260510072805 60 155 2.0 3.0 0.00 0.00 0.00 73 1014.8
20260510072306 60 155 1.0 2.0 0.00 0.00 0.00 73 1014.8
20260510071805 60 155 1.0 2.0 0.00 0.00 0.00 73 1014.8
20260510071305 60 155 1.0 3.0 0.00 0.00 0.00 73 1014.8
20260510070827 60 154 1.0 2.0 0.00 0.00 0.00 72 1014.8
20260510070306 60 154 2.0 3.0 0.00 0.00 0.00 71 1014.8
20260510065806 61 286 2.0 3.0 0.00 0.00 0.00 71 1014.8
20260510065306 60 287 1.0 2.0 0.00 0.00 0.00 71 1014.8
20260510064805 60 287 1.0 1.0 0.00 0.00 0.00 71 1014.8
20260510064305 61 287 0.0 2.0 0.00 0.00 0.00 70 1014.7
20260510063804 61 287 0.0 1.0 0.00 0.00 0.00 69 1014.7
20260510063305 62 287 1.0 2.0 0.00 0.00 0.00 69 1014.6
20260510062805 62 287 2.0 2.0 0.00 0.00 0.00 68 1014.6
20260510062307 62 287 0.0 1.0 0.00 0.00 0.00 67 1014.6
20260510061805 63 287 1.0 2.0 0.00 0.00 0.00 66 1014.6
20260510061305 63 287 1.0 1.0 0.00 0.00 0.00 65 1014.6
20260510060805 64 287 1.0 2.0 0.00 0.00 0.00 64 1014.7
20260510060305 64 306 1.0 2.0 0.00 0.00 0.00 64 1014.7
20260510055805 64 313 0.0 1.0 0.00 0.00 0.00 65 1014.6
20260510054805 64 313 1.0 2.0 0.00 0.00 0.00 64 1014.6
20260510054305 64 313 0.0 1.0 0.00 0.00 0.00 64 1014.6
20260510053306 65 313 1.0 1.0 0.00 0.00 0.00 62 1014.5
20260510052804 66 313 1.0 2.0 0.00 0.00 0.00 61 1014.5
20260510052306 66 314 0.0 1.0 0.00 0.00 0.00 60 1014.4
20260510051805 67 314 0.0 1.0 0.00 0.00 0.00 59 1014.4
20260510051304 67 314 0.0 1.0 0.00 0.00 0.00 56 1014.5
20260510050805 67 314 0.0 1.0 0.00 0.00 0.00 57 1014.4
20260510050305 68 314 0.0 1.0 0.00 0.00 0.00 56 1014.4
20260510045805 68 314 0.0 1.0 0.00 0.00 0.00 55 1014.5
20260510045306 68 314 0.0 2.0 0.00 0.00 0.00 55 1014.4
20260510044305 69 313 1.0 3.0 0.00 0.00 0.00 55 1014.3
20260510043804 69 348 0.0 2.0 0.00 0.00 0.00 54 1014.2
20260510043305 69 351 1.0 5.0 0.00 0.00 0.00 53 1014.3
20260510042804 69 345 2.0 3.0 0.00 0.00 0.00 53 1014.2
20260510042307 70 326 1.0 3.0 0.00 0.00 0.00 52 1014.1
20260510041804 70 326 0.0 3.0 0.00 0.00 0.00 52 1014.1
20260510041304 70 304 0.0 3.0 0.00 0.00 0.00 52 1013.8
20260510035804 70 0 0.0 1.0 0.00 0.00 0.00 51 1013.7
20260510035306 71 0 0.0 1.0 0.00 0.00 0.00 49 1013.7
20260510034804 71 0 0.0 1.0 0.00 0.00 0.00 50 1013.6
20260510034305 71 0 1.0 2.0 0.00 0.00 0.00 49 1013.6
20260510033805 72 0 1.0 3.0 0.00 0.00 0.00 48 1013.5
20260510033304 72 330 2.0 3.0 0.00 0.00 0.00 47 1013.5
20260510032804 72 330 2.0 3.0 0.00 0.00 0.00 47 1013.4
20260510032306 72 0 2.0 6.0 0.00 0.00 0.00 47 1013.3
20260510031805 72 9 3.0 5.0 0.00 0.00 0.00 47 1013.2
20260510031305 73 3 2.0 5.0 0.00 0.00 0.00 47 1013.2
20260510030804 73 355 2.0 3.0 0.00 0.00 0.00 46 1013.2
20260510030305 73 342 2.0 5.0 0.00 0.00 0.00 46 1013.2
20260510025804 73 342 2.0 5.0 0.00 0.00 0.00 45 1013.2
20260510024808 74 6 2.0 3.0 0.00 0.00 0.00 45 1013.2
20260510024307 74 337 3.0 5.0 0.00 0.00 0.00 44 1013.1
20260510023307 75 14 2.0 6.0 0.00 0.00 0.00 42 1013.2
20260510022807 76 350 5.0 8.0 0.00 0.00 0.00 42 1013.2
20260510020807 76 19 4.0 8.0 0.00 0.00 0.00 41 1013.2
20260510020308 76 44 2.0 8.0 0.00 0.00 0.00 41 1013.2
20260510015807 76 348 4.0 8.0 0.00 0.00 0.00 40 1013.3
20260510014808 77 45 2.0 5.0 0.00 0.00 0.00 39 1013.4
20260510013807 77 345 4.0 9.0 0.00 0.00 0.00 39 1013.4
20260510013307 77 40 3.0 7.0 0.00 0.00 0.00 37 1013.5
20260510012807 78 9 5.0 8.0 0.00 0.00 0.00 35 1013.5
20260510012307 78 12 3.0 10.0 0.00 0.00 0.00 34 1013.5
20260510011807 78 16 5.0 10.0 0.00 0.00 0.00 33 1013.6
20260510011307 79 358 2.0 3.0 0.00 0.00 0.00 34 1013.6
20260510005807 81 28 1.0 3.0 0.00 0.00 0.00 30 1013.6
20260510005307 79 267 1.0 3.0 0.00 0.00 0.00 30 1013.5
20260510004807 79 317 2.0 6.0 0.00 0.00 0.00 30 1013.6
20260510004307 79 312 2.0 3.0 0.00 0.00 0.00 30 1013.7
20260510003807 79 320 2.0 3.0 0.00 0.00 0.00 30 1013.7
20260510003307 80 273 2.0 6.0 0.00 0.00 0.00 31 1013.7
20260510002807 80 310 1.0 6.0 0.00 0.00 0.00 31 1013.7
20260510002307 80 264 3.0 6.0 0.00 0.00 0.00 32 1013.7
20260510001807 79 328 3.0 12.0 0.00 0.00 0.00 31 1013.9
20260510001307 79 345 2.0 8.0 0.00 0.00 0.00 31 1014.0
20260510000806 79 316 2.0 3.0 0.00 0.00 0.00 30 1014.0
20260510000307 79 5 2.0 3.0 0.00 0.00 0.00 30 1014.1
20260509235807 79 351 2.0 5.0 0.00 0.00 0.00 32 1014.1
20260509235307 79 338 4.0 7.0 0.00 0.00 0.00 33 1014.1
20260509234307 79 294 2.0 8.0 0.00 0.00 0.00 33 1014.1
20260509233307 79 350 3.0 9.0 0.00 0.00 0.00 36 1014.2
20260509232807 79 346 2.0 12.0 0.00 0.00 0.00 36 1014.2
20260509232307 79 344 2.0 10.0 0.00 0.00 0.00 37 1014.3
20260509231808 78 9 6.0 10.0 0.00 0.00 0.00 37 1014.3
20260509231307 79 284 3.0 8.0 0.00 0.00 0.00 37 1014.5
20260509230807 79 2 3.0 6.0 0.00 0.00 0.00 38 1014.5
20260509230307 79 19 3.0 7.0 0.00 0.00 0.00 40 1014.6
20260509225807 77 205 1.0 7.0 0.00 0.00 0.00 43 1014.7
20260509225307 78 259 3.0 9.0 0.00 0.00 0.00 41 1014.7
20260509224306 78 323 3.0 7.0 0.00 0.00 0.00 42 1015.0
20260509223807 77 298 5.0 10.0 0.00 0.00 0.00 45 1015.2
20260509222806 77 290 2.0 8.0 0.00 0.00 0.00 43 1015.5
20260509222307 77 299 4.0 8.0 0.00 0.00 0.00 44 1015.5
20260509221807 76 283 4.0 7.0 0.00 0.00 0.00 46 1015.7
20260509220306 76 215 1.0 7.0 0.00 0.00 0.00 47 1015.8
20260509215806 76 237 4.0 12.0 0.00 0.00 0.00 45 1016.0
20260509215307 75 231 3.0 8.0 0.00 0.00 0.00 45 1016.0
20260509214807 75 353 3.0 6.0 0.00 0.00 0.00 45 1016.0
20260509214307 75 222 3.0 10.0 0.00 0.00 0.00 47 1016.0
20260509213806 76 299 4.0 8.0 0.00 0.00 0.00 46 1016.1
20260509213306 75 302 2.0 6.0 0.00 0.00 0.00 40 1016.1
20260509212307 74 292 2.0 3.0 0.00 0.00 0.00 42 1016.4
20260509211806 74 276 4.0 9.0 0.00 0.00 0.00 42 1016.3
20260509211307 74 318 6.0 13.0 0.00 0.00 0.00 43 1016.3
20260509210306 75 302 5.0 9.0 0.00 0.00 0.00 42 1016.5
20260509205806 75 268 3.0 7.0 0.00 0.00 0.00 42 1016.5
20260509205307 74 0 2.0 3.0 0.00 0.00 0.00 42 1016.4
20260509204806 73 341 2.0 8.0 0.00 0.00 0.00 44 1016.5
20260509204307 73 331 4.0 9.0 0.00 0.00 0.00 43 1016.5
20260509202307 73 282 6.0 10.0 0.00 0.00 0.00 46 1016.7
20260509201806 74 279 3.0 8.0 0.00 0.00 0.00 45 1016.9
20260509201307 73 42 4.0 10.0 0.00 0.00 0.00 44 1016.8
20260509200806 72 293 3.0 8.0 0.00 0.00 0.00 45 1016.8
20260509200306 72 331 5.0 12.0 0.00 0.00 0.00 48 1017.1
20260509195806 72 9 6.0 12.0 0.00 0.00 0.00 48 1017.2
20260509195307 71 278 7.0 13.0 0.00 0.00 0.00 48 1017.2
20260509194306 71 281 3.0 6.0 0.00 0.00 0.00 48 1017.3
20260509193807 71 341 2.0 8.0 0.00 0.00 0.00 49 1017.4
20260509193306 70 7 5.0 9.0 0.00 0.00 0.00 48 1017.5
20260509192806 71 12 7.0 10.0 0.00 0.00 0.00 48 1017.5
20260509192306 70 5 2.0 8.0 0.00 0.00 0.00 49 1017.5
20260509191806 70 358 1.0 9.0 0.00 0.00 0.00 51 1017.6
20260509191307 70 30 5.0 9.0 0.00 0.00 0.00 51 1017.7
20260509190307 69 330 2.0 8.0 0.00 0.00 0.00 54 1017.8
20260509185806 69 4 5.0 12.0 0.00 0.00 0.00 55 1017.9
20260509184806 69 304 2.0 12.0 0.00 0.00 0.00 55 1017.9
20260509183806 68 62 4.0 9.0 0.00 0.00 0.00 56 1018.2
20260509183306 68 269 2.0 12.0 0.00 0.00 0.00 57 1018.2
20260509182806 68 47 4.0 9.0 0.00 0.00 0.00 57 1018.4
20260509182307 67 37 3.0 8.0 0.00 0.00 0.00 59 1018.4
20260509181807 67 336 3.0 9.0 0.00 0.00 0.00 60 1018.5
20260509181306 67 8 4.0 8.0 0.00 0.00 0.00 61 1018.5
20260509180806 67 351 2.0 3.0 0.00 0.00 0.00 63 1018.4
20260509180307 65 49 2.0 6.0 0.00 0.00 0.00 64 1018.4
20260509175806 65 345 3.0 6.0 0.00 0.00 0.00 65 1018.4
20260509174806 65 3 2.0 5.0 0.00 0.00 0.00 67 1018.6
20260509174306 64 9 1.0 6.0 0.00 0.00 0.00 68 1018.6
20260509173306 64 340 3.0 6.0 0.00 0.00 0.00 69 1018.8
20260509172807 63 346 3.0 6.0 0.00 0.00 0.00 69 1018.9
20260509172307 63 20 2.0 7.0 0.00 0.00 0.00 69 1019.0
20260509171806 63 33 2.0 7.0 0.00 0.00 0.00 71 1019.1
20260509171307 62 330 2.0 3.0 0.00 0.00 0.00 72 1019.2
20260509170306 62 320 2.0 8.0 0.00 0.00 0.00 72 1019.3
20260509165307 61 339 5.0 8.0 0.00 0.00 0.00 73 1019.5
20260509164806 61 46 3.0 6.0 0.00 0.00 0.00 73 1019.4
20260509164306 61 10 3.0 5.0 0.00 0.00 0.00 74 1019.5
20260509163806 60 16 1.0 3.0 0.00 0.00 0.00 75 1019.5
20260509163306 59 283 3.0 9.0 0.00 0.00 0.00 76 1019.7
20260509162806 59 295 3.0 5.0 0.00 0.00 0.00 76 1019.7
20260509162307 59 32 2.0 5.0 0.00 0.00 0.00 78 1019.7
20260509161306 58 339 1.0 5.0 0.00 0.00 0.00 78 1020.0
20260509160807 58 297 3.0 5.0 0.00 0.00 0.00 78 1020.1
20260509160306 58 353 3.0 5.0 0.00 0.00 0.00 78 1020.1
20260509155806 57 81 2.0 5.0 0.00 0.00 0.00 79 1020.0
20260509155306 57 54 3.0 5.0 0.00 0.00 0.00 79 1020.1
20260509154806 57 56 4.0 6.0 0.00 0.00 0.00 79 1020.2
20260509153806 56 311 3.0 5.0 0.00 0.00 0.00 81 1020.1
20260509153307 56 313 2.0 8.0 0.00 0.00 0.00 81 1020.2
20260509152806 56 329 3.0 5.0 0.00 0.00 0.00 81 1020.2
20260509152307 55 352 5.0 9.0 0.00 0.00 0.00 82 1020.3
20260509151806 55 15 2.0 5.0 0.00 0.00 0.00 84 1020.4
20260509151305 55 3 4.0 7.0 0.00 0.00 0.00 84 1020.4